{"data":{"norad_id":47502,"epoch":"2026-05-25T01:37:59.769696Z","epoch_age_seconds":69082,"freshness":"FRESH","line1":"1 47502U 21006CT  26145.06805289  .00005769  00000+0  17579-3 0  9991","line2":"2 47502  97.2298 189.8425 0004984 285.6616  74.4077 15.34341960295958","mean_motion":15.3434196,"eccentricity":0.0004984,"inclination_deg":97.2298,"raan_deg":189.8425,"arg_perigee_deg":285.6616,"mean_anomaly_deg":74.4077,"bstar":0.00017579,"rev_number":29595,"period_min":93.851308087801,"perigee_km":459.46619200038,"apogee_km":466.28531351233,"semimajor_km":6841.0127527564,"source":"CELESTRAK","updated_at":"2026-05-25T13:38:24.898723Z"}}